| time (UTC) | temp C | wind direction | speed KPH | gust KPH | rain 1hr cm | rain 24hr cm | rain mn cm | humidity % | barometer mb |
| 20260504185827 | 27 | 252 | 9.7 | 11.3 | 0.00 | 0.00 | 0.00 | 31 | 991.1 |
| 20260504183827 | 27 | 241 | 14.5 | 16.1 | 0.00 | 0.00 | 0.00 | 30 | 991.2 |
| 20260504181827 | 27 | 246 | 11.3 | 16.1 | 0.00 | 0.00 | 0.00 | 31 | 991.4 |
| 20260504180827 | 27 | 250 | 14.5 | 20.9 | 0.00 | 0.00 | 0.00 | 32 | 991.4 |
| 20260504174827 | 26 | 207 | 20.9 | 25.7 | 0.00 | 0.00 | 0.00 | 31 | 991.5 |
| 20260504173827 | 26 | 221 | 11.3 | 16.1 | 0.00 | 0.00 | 0.00 | 34 | 991.4 |
| 20260504172827 | 26 | 227 | 17.7 | 30.6 | 0.00 | 0.00 | 0.00 | 32 | 991.7 |
| 20260504170827 | 26 | 244 | 20.9 | 24.1 | 0.00 | 0.00 | 0.00 | 31 | 991.7 |
| 20260504150827 | 23 | 186 | 12.9 | 16.1 | 0.00 | 0.00 | 0.00 | 39 | 992.3 |
| 20260504140827 | 21 | 169 | 6.4 | 11.3 | 0.00 | 0.00 | 0.00 | 42 | 992.8 |
| 20260504081827 | 11 | 156 | 0.0 | 0.0 | 0.00 | 0.00 | 0.00 | 56 | 995.2 |
| 20260504045827 | 13 | 156 | 0.0 | 0.0 | 0.00 | 0.00 | 0.00 | 48 | 997.4 |
| 20260504043827 | 15 | 231 | 0.0 | 1.6 | 0.00 | 0.00 | 0.00 | 43 | 997.7 |
| 20260504042827 | 15 | 258 | 1.6 | 3.2 | 0.00 | 0.00 | 0.00 | 43 | 997.6 |
| 20260504040827 | 15 | 248 | 1.6 | 3.2 | 0.00 | 0.00 | 0.00 | 42 | 997.9 |
| 20260504035827 | 16 | 236 | 4.8 | 6.4 | 0.00 | 0.00 | 0.00 | 41 | 998.1 |
| 20260504033827 | 16 | 255 | 3.2 | 3.2 | 0.00 | 0.00 | 0.00 | 40 | 998.3 |
| 20260504032828 | 16 | 225 | 1.6 | 3.2 | 0.00 | 0.00 | 0.00 | 40 | 998.5 |
| 20260504030827 | 16 | 266 | 3.2 | 6.4 | 0.00 | 0.00 | 0.00 | 39 | 998.5 |
| 20260504025827 | 15 | 230 | 1.6 | 3.2 | 0.00 | 0.00 | 0.00 | 41 | 998.4 |
| 20260504023828 | 13 | 198 | 0.0 | 0.0 | 0.00 | 0.00 | 0.00 | 51 | 998.5 |
| 20260504022827 | 13 | 195 | 0.0 | 0.0 | 0.00 | 0.00 | 0.00 | 51 | 998.3 |
| 20260504021827 | 14 | 195 | 0.0 | 0.0 | 0.00 | 0.00 | 0.00 | 50 | 998.3 |
| 20260504020827 | 14 | 225 | 0.0 | 0.0 | 0.00 | 0.00 | 0.00 | 47 | 998.4 |
| 20260504014827 | 15 | 238 | 0.0 | 0.0 | 0.00 | 0.00 | 0.00 | 42 | 998.4 |
| 20260504013826 | 16 | 237 | 0.0 | 0.0 | 0.00 | 0.00 | 0.00 | 39 | 998.3 |
| 20260504012827 | 17 | 237 | 0.0 | 0.0 | 0.00 | 0.00 | 0.00 | 35 | 998.3 |
| 20260504011827 | 18 | 237 | 0.0 | 0.0 | 0.00 | 0.00 | 0.00 | 33 | 998.3 |
| 20260504010827 | 20 | 256 | 0.0 | 0.0 | 0.00 | 0.00 | 0.00 | 30 | 998.2 |
| 20260504005827 | 21 | 232 | 1.6 | 3.2 | 0.00 | 0.00 | 0.00 | 28 | 998.2 |
| 20260504004827 | 23 | 273 | 0.0 | 1.6 | 0.00 | 0.00 | 0.00 | 27 | 998.2 |
| 20260504002827 | 23 | 255 | 3.2 | 3.2 | 0.00 | 0.00 | 0.00 | 25 | 998.3 |
| 20260504001827 | 24 | 249 | 3.2 | 3.2 | 0.00 | 0.00 | 0.00 | 25 | 998.3 |
| 20260504000827 | 24 | 258 | 6.4 | 6.4 | 0.00 | 0.00 | 0.00 | 25 | 998.4 |
| 20260503235827 | 23 | 247 | 14.5 | 20.9 | 0.00 | 0.00 | 0.00 | 24 | 998.4 |
| 20260503234828 | 25 | 243 | 6.4 | 6.4 | 0.00 | 0.00 | 0.00 | 24 | 998.3 |
| 20260503233827 | 24 | 263 | 9.7 | 12.9 | 0.00 | 0.00 | 0.00 | 24 | 998.4 |
| 20260503232826 | 25 | 249 | 9.7 | 11.3 | 0.00 | 0.00 | 0.00 | 24 | 998.3 |
| 20260503231827 | 25 | 264 | 4.8 | 8.0 | 0.00 | 0.00 | 0.00 | 23 | 998.4 |
| 20260503230827 | 25 | 254 | 9.7 | 11.3 | 0.00 | 0.00 | 0.00 | 23 | 998.4 |
| 20260503225828 | 25 | 270 | 6.4 | 8.0 | 0.00 | 0.00 | 0.00 | 23 | 998.5 |
| 20260503223827 | 25 | 256 | 11.3 | 14.5 | 0.00 | 0.00 | 0.00 | 23 | 998.4 |
| 20260503221827 | 25 | 116 | 14.5 | 19.3 | 0.00 | 0.00 | 0.00 | 24 | 998.5 |
| 20260503220826 | 25 | 248 | 9.7 | 11.3 | 0.00 | 0.00 | 0.00 | 24 | 998.7 |
| 20260503215826 | 25 | 252 | 9.7 | 14.5 | 0.00 | 0.00 | 0.00 | 24 | 998.6 |
| 20260503214828 | 24 | 237 | 9.7 | 16.1 | 0.00 | 0.00 | 0.00 | 25 | 998.7 |
| 20260503213827 | 25 | 248 | 12.9 | 17.7 | 0.00 | 0.00 | 0.00 | 23 | 998.7 |
| 20260503212827 | 25 | 230 | 14.5 | 17.7 | 0.00 | 0.00 | 0.00 | 23 | 998.7 |
| 20260503211827 | 25 | 114 | 8.0 | 14.5 | 0.00 | 0.00 | 0.00 | 24 | 998.8 |
| 20260503210827 | 25 | 246 | 16.1 | 20.9 | 0.00 | 0.00 | 0.00 | 24 | 998.8 |
| 20260503205827 | 25 | 240 | 14.5 | 17.7 | 0.00 | 0.00 | 0.00 | 25 | 998.9 |
| 20260503204827 | 25 | 267 | 6.4 | 11.3 | 0.00 | 0.00 | 0.00 | 26 | 998.9 |
| 20260503203827 | 25 | 252 | 8.0 | 12.9 | 0.00 | 0.00 | 0.00 | 26 | 999.0 |
| 20260503202827 | 25 | 254 | 11.3 | 16.1 | 0.00 | 0.00 | 0.00 | 25 | 999.1 |
| 20260503201827 | 25 | 235 | 11.3 | 12.9 | 0.00 | 0.00 | 0.00 | 25 | 999.2 |
| 20260503200827 | 24 | 255 | 17.7 | 20.9 | 0.00 | 0.00 | 0.00 | 25 | 999.3 |
| 20260503195827 | 24 | 232 | 14.5 | 16.1 | 0.00 | 0.00 | 0.00 | 26 | 999.4 |
| 20260503193827 | 24 | 261 | 16.1 | 20.9 | 0.00 | 0.00 | 0.00 | 27 | 999.3 |
| 20260503191827 | 23 | 263 | 12.9 | 16.1 | 0.00 | 0.00 | 0.00 | 29 | 999.4 |
| 20260503190827 | 23 | 240 | 16.1 | 22.5 | 0.00 | 0.00 | 0.00 | 28 | 999.4 |